DW0920 Weather Reports


time (UTC)temp
F
wind
direction
speed
knots
gust
knots
rain 1hr
in
rain 24hr
in
rain mn
in
humidity
%
barometer
mb
20260504213112 52 227 0.0 7.8 0.00 0.33 0.11 66 1005.9
20260504212114 53 227 1.7 7.8 0.00 0.34 0.11 64 1005.8
20260504211126 53 208 0.9 7.8 0.00 0.34 0.11 63 1005.6
20260504204954 54 252 3.5 12.2 0.00 0.38 0.11 59 1005.5
20260504203955 56 234 3.5 12.2 0.00 0.39 0.11 55 1005.5
20260504203018 57 246 3.5 14.8 0.00 0.43 0.11 51 1005.4
20260504200827 61 273 3.5 11.3 0.00 0.48 0.11 43 1004.9
20260504195816 63 282 1.7 10.4 0.00 0.48 0.11 37 1004.8
20260504194808 63 237 2.6 11.3 0.00 0.49 0.11 33 1004.6
20260504193824 62 263 3.5 11.3 0.00 0.50 0.11 34 1004.5
20260504192801 63 289 1.7 9.6 0.00 0.51 0.11 34 1004.5
20260504191754 63 277 2.6 9.6 0.00 0.53 0.11 33 1004.4
20260504190759 63 250 2.6 7.8 0.00 0.55 0.11 35 1004.1
20260504185820 63 279 1.7 7.8 0.00 0.55 0.11 36 1004.2
20260504183722 62 281 3.5 14.8 0.00 0.58 0.11 33 1004.2
20260504182739 62 277 3.5 9.6 0.00 0.60 0.11 34 1004.5
20260504180633 62 246 2.6 13.0 0.00 0.68 0.11 35 1004.3
20260504175622 61 313 3.5 11.3 0.00 0.71 0.11 34 1004.3
20260504174639 61 284 3.5 17.4 0.00 0.74 0.11 34 1004.5
20260504173648 60 190 4.3 17.4 0.00 0.75 0.11 37 1004.5
20260504172705 60 304 3.5 10.4 0.00 0.77 0.11 33 1004.5